sat.trackr.live / text

‹ back to catalog

STARLINK-3554

NORAD 51872 · 2022-022W

PAYLOAD ACTIVE UNKNOWN

§ Identity

Operator
Country
US
Launch date
2022-03-03
Launch site
AFETR
Launch vehicle
Mass (kg)
RCS (m²)

Purposes: comms

External: N2YO · Heavens-Above · Gunter

§ Orbital elements

Epoch: 2026-09-19T23:25:26.438016Z

Period
93.85 min
Inclination
53.1616°
Eccentricity
0.0001004
Mean motion
15.34390893 rev/d
Perigee alt
462.0 km
Apogee alt
463.4 km
Semi-major
6,840.9 km
B*
5.4899e-5
RAAN
205.8189°
Arg perigee
90.7118°
Mean anomaly
269.3999°
Rev number
25,259

§ Raw data

STARLINK-35541 51872U 22022W   26262.97600044  .00001479  00000+0  54899-4 0  99982 51872  53.1616 205.8189 0001004  90.7118 269.3999 15.34390893252596

JSON: /api/v1/satellites/51872 · /tle

For live sub-satellite position, see the globe view (requires WebGL).

§ Visibility from observer

Set your observer location to see the next 7 days of passes ≥ 10°. The values pass through the URL so the page stays shareable.

No JS? Fill the form by hand. The geolocation button needs JavaScript.